Tracking 33404 objects as of 6-Mar-2026
HD Live streaming from Space Station
objects crossing your sky now

ONEWEB-0124

Track ONEWEB-0124 now!
10-day predictions
ONEWEB-0124 is classified as:


NORAD ID: 47270
Int'l Code: 2020-100N
Perigee: 1,219.6 km
Apogee: 1,222.1 km
Inclination: 87.9 °
Period: 109.7 minutes
Semi major axis: 7591 km
RCS: Unknown
Launch date: December 18, 2020
Source: United Kingdom (UK)
Launch site: VOSTOCHNY COSMODROME (VOSTO)
Your satellite tracking list
Your tracking list is empty




NASA's NSSDC Master Catalog

Two Line Element Set (TLE):
1 47270U 20100N   26065.58142263 -.00000143  00000-0 -43218-3 0  9994
2 47270  87.8988  11.0446 0001668  79.9845 280.1472 13.12443404251119
Source of the keplerian elements: AFSPC